Location: アルンシュタイン
(50.0000°N, 10.0000°E)
Time: 10:11:13
(UTC+01:00)

Envisat - Pass Details

Date: 28 September 2023
Orbit: 762 x 764 km, 98.3° (Epoch: 07 December)

Event Time Altitude Azimuth Distance (km) Brightness Sun altitude
Rises 06:12:34 0° 7° (N) 3,245 6.5 -10.8°
Reaches altitude 10° 06:15:04 10° 358° (N) 2,314 5.6 -10.4°
Maximum altitude 06:19:32 32° 297° (WNW) 1,308 3.8 -9.7°
Drops below altitude 10° 06:23:58 10° 236° (SW) 2,300 4.9 -9.0°
Enters shadow 06:24:44 - 232° (SW) 2,578 5.2 -8.9°
